Location: Newark
(44.4156°N, 12.1972°E)
Time: 15:26:05
(UTC+00:00)

STARLINK-1075 - Pass Details

Date: 28 January 2020
Orbit: 349 x 350 km, 53.0° (Epoch: 18 February)

Event Time Altitude Azimuth Distance (km) Brightness Sun altitude
Rises 17:16:12 0° 306° (NW) 2,168 7.3 -11.3°
Reaches altitude 10° 17:18:29 10° 323° (NW) 1,324 5.9 -11.7°
Maximum altitude 17:20:53 22° 17° (NNE) 836 4.3 -12.1°
Enters shadow 17:21:47 19° 44° (NE) 920 4.3 -12.2°
